Regional Weather Roundup
Issued by NWS Mobile, AL

Home | Current Version | Previous Version | Text Only | Print | Product List | Glossary On
Versions: 1 2 3 4 5 6 7 8 9 10 11 12 13 14 15 16 17 18 19 20 21 22 23 24 25 26 27
000
ASUS44 KMOB 300412
RWRMOB
REGIONAL WEATHER ROUNDUP
NATIONAL WEATHER SERVICE MOBILE AL
1100 PM CDT MON AUG 29 2016

NOTE: "FAIR" INDICATES FEW OR NO CLOUDS BELOW 12,000 FEET WITH NO
      SIGNIFICANT WEATHER AND/OR OBSTRUCTIONS TO VISIBILITY.

  * THESE STATIONS ARE PART OF THE UNIVERSITY OF SOUTH ALABAMA
    MESONET AND ARE NOT UNDER NWS OR FAA QUALITY CONTROL.

ALZ061>064-300500-
COASTAL ALABAMA

CITY           SKY/WX    TMP DP  RH WIND       PRES   REMARKS
MOBILE REG APT CLEAR     78  71  79 NE7       29.98S
BROOKLEY FIELD CLEAR     84  73  69 NE9       29.98S
USA CAMPUS*    NOT AVBL
DOG RIVER*     NOT AVBL


CITY           SKY/WX    TMP DP  RH WIND       PRES   REMARKS
MOUNT VERNON*  NOT AVBL
SARALAND*      NOT AVBL
BAY MINETTE*   NOT AVBL
LOXLEY*        NOT AVBL
ROBERTSDALE*   NOT AVBL
FAIRHOPE*      NOT AVBL
ELBERTA*       NOT AVBL
FOLEY*         NOT AVBL
GRAND BAY*     NOT AVBL
DAUPHIN ISLND* NOT AVBL
BON SCOUR NWR* NOT AVBL
GULF SHORES    PTCLDY    78  73  82 CALM      29.95F

$$

ALZ051>060-300500-
INTERIOR SOUTHWEST AND SOUTH CENTRAL ALABAMA

CITY           SKY/WX    TMP DP  RH WIND       PRES   REMARKS
GREENVILLE     PTCLDY    77  69  76 NE6       30.01F
EVERGREEN      PTCLDY    74  71  91 CALM      30.01S
CASTLEBERRY*   NOT AVBL
ATMORE*        NOT AVBL
DIXIE*         NOT AVBL
ANDALUSIA/OPP  CLEAR     80  70  71 NE5       30.00S
ANDALUSIA*     NOT AVBL
FLORALA APT    CLEAR     76  70  82 NE6       30.01S
FLORALA*       NOT AVBL

$$

FLZ001>006-300500-
WESTERN FLORIDA PANHANDLE

CITY           SKY/WX    TMP DP  RH WIND       PRES   REMARKS
PENSACOLA      PTCLDY    84  69  60 NE9G17    29.96S
NAS PENSACOLA  MOCLDY    82  71  69 N8        29.95S
MILTON         CLEAR     79  71  76 VRB3      29.98R
WHTNG S FIELD  PTCLDY    83  72  69 NE8       29.97S


CITY           SKY/WX    TMP DP  RH WIND       PRES   REMARKS
WALNUT HILL*   NOT AVBL
JAY*           NOT AVBL
DUKE FIELD     PTCLDY    80  70  72 NE5       29.97R
CRESTVIEW      PTCLDY    79  70  74 NE3       29.99F
VALPARAISO     PTCLDY    84  70  63 NE9       29.96S
DESTIN         PTCLDY    86  74  67 NE7       29.96R

$$

MSZ076-079-300500-
INTERIOR SOUTHEAST MISSISSIPPI

CITY           SKY/WX    TMP DP  RH WIND       PRES   REMARKS
LEAKESVILLE*   NOT AVBL
AGRICOLA*      NOT AVBL

$$

MARINE OBSERVATIONS

STATION/POSITION TIME  TEMP    WIND        PRES    WAVE
                       AIR SEA DIR/SP/G            HT/PER
                 (UTC) (F)     (DEG/KT/KT) (MB)    (FT/S)
PASCAGOULA       0300   83      10/  4/  5 1014.4R
PETIT BOIS ISLND 0300   85      60/  7/  8 1014.9R
GRAND BAY        0245   81      10/  3     1016.0R
KATRINA CUT      0300   86      70/  7     1015.2R
CEDAR POINT      0300   87      60/  7     1014.2S
E DAUPHIN ISLAND 0400   86      60/ 10/ 11 1014.0S
MIDDLE BAY LIGHT 0300   86      60/ 12     1014.6R
USCG MOBILE BAY  0300   85 86   60/  7/  8 1015.2R
STATE DOCKS      0300   84 89              1014.6R
MEAHER PARK      0300   83      20/  3     1014.6S
WEEKS BAY        0200   78                   N/A
FORT MORGAN      0300   85      60/  6/  8 1013.8R
12 S ORANGE BCH  0350   87 86   50/ 10/ 14 1013.9F   3/ 7
PENSACOLA BAY    0300   87 87   30/  6/  8 1014.5R
64 S DAUPHIN ISL 0400   85 86   80/ 14/ 16 1013.4R
67 S FORT MORGAN 0330   83      60/ 17     1013.5R

$$

SELECTED LOCATIONS ACROSS THE REGION

CITY           SKY/WX    TMP DP  RH WIND       PRES   REMARKS
NEW ORLEANS    PTCLDY    84  75  74 CALM      29.97R
GULFPORT       CLOUDY    79  77  94 N5        29.96S
PASCAGOULA AP  CLEAR     77  77 100 CALM      29.96S
PASCAGOULA*    NOT AVBL
HATTIESBURG    CLEAR     76  73  91 CALM      30.00R
LAUREL         CLEAR     63 N/A N/A MISG      30.01S
MERIDIAN       CLEAR     78  73  84 CALM      30.01S
JACKSON        CLEAR     79  73  82 E6        30.01S
MONTGOMERY     PTCLDY    78  71  79 CALM      30.03S
TROY           CLEAR     74  72  93 NE3       30.03S
KINSTON*       NOT AVBL
GENEVA*        NOT AVBL
ASHFORD*       NOT AVBL
DOTHAN         CLEAR     76  74  93 NE5       30.04R
PANAMA CITY    PTCLDY    78  73  84 N5        29.96S

$$





USA.gov is the U.S. government's official web portal to all federal, state and local government web resources and services.